Location: Follega
(52.8850°N, 5.7362°E)
Time: 00:20:19
(UTC+00:00)

ERS-1 Rocket - Pass Details

Date: 08 October 2020
Orbit: 753 x 757 km, 98.5° (Epoch: 24 October)

Event Time Altitude Azimuth Distance (km) Brightness Sun altitude
Exits shadow 20:58:14 28° 350° (N) 1,403 4.7 -34.7°
Drops below altitude 10° 21:00:35 10° 347° (NNW) 2,300 6.1 -35.0°
Sets 21:02:54 0° 346° (NNW) 3,230 7.0 -35.2°
